Location: Campolattaro
(41.2833°N, 14.7333°E)
Time: 22:00:54
(UTC+00:00)

DELTA 2 R/B (1) - Pass Details

Date: 19 May 2025
Orbit: 788 x 800 km, 39.6° (Epoch: 15 June)

Event Time Altitude Azimuth Distance (km) Brightness Sun altitude
Rises 18:42:31 0° 219° (SW) 3,261 6.9 -5.0°
Reaches altitude 10° 18:45:17 10° 208° (SSW) 2,336 6.0 -5.4°
Maximum altitude 18:49:55 28° 150° (SSE) 1,434 4.5 -6.2°
Drops below altitude 10° 18:54:35 10° 93° (E) 2,348 5.5 -6.9°
Sets 18:57:21 0° 82° (E) 3,281 6.3 -7.3°
